Address 0x302eab8e588c39cee016d43154a04a34fd97346d

Txn Hash Method
Block
From
To
Value [Txn Fee]
0xa732ca8244332925172d7a812c8411c768a74d7668d948cfd0c9c706f1f962ff0x6b351848750973192022-09-28 14:23:141 hr 15 mins ago0x302eab8e588c39cee016d43154a04a34fd97346dOUTNear Protocol: wNEAR Token0 ETH0
0xb35acd426dae7fee4bea424c6d4402d69e015b3212b119a123eae6251d77ad62Swap Exact Token...750973142022-09-28 14:23:081 hr 15 mins ago0x302eab8e588c39cee016d43154a04a34fd97346dOUTTrisolaris: Router0 ETH0
0x0d6abffcabd00e370c4c65c615cc5a94f75d7376d97324dc617b81a227abd8ca0x6b351848750964422022-09-28 14:04:511 hr 33 mins ago0x302eab8e588c39cee016d43154a04a34fd97346dOUTNear Protocol: wNEAR Token0 ETH0
0xa4fec8fbaf3418451b4f861127e1a346a7a83805b3bc934209829da994079a34Swap Exact Token...750964322022-09-28 14:04:371 hr 34 mins ago0x302eab8e588c39cee016d43154a04a34fd97346dOUTTrisolaris: Router0 ETH0
0xbbd1f7dadc0cf0d203a6aa42cebdc7fb8036b4e27ded25b2779bd983243afad5Approve750964242022-09-28 14:04:271 hr 34 mins ago0x302eab8e588c39cee016d43154a04a34fd97346dOUT0x221292443758f63563a1ed04b547278b05845fcb0 ETH0
0x5fb9b42631789c9f0ea67a4a7d3951262fcc6ffa5d021697d87b19ca9e39900d0x6b351848750953022022-09-28 13:42:211 hr 56 mins ago0x302eab8e588c39cee016d43154a04a34fd97346dOUTAurora: AURORA Token0 ETH0
0x3cb61a71384385add8d7ec9d1ab728e50b8186767f933b0c6a51cc6818d77debSwap Exact Token...750952872022-09-28 13:42:051 hr 56 mins ago0x302eab8e588c39cee016d43154a04a34fd97346dOUTTrisolaris: Router0 ETH0
0x792874308cd25a57ee9d236b7ab32be3206dacb1f82bbbcb4937931cea8b63fc0x6b351848750944272022-09-28 13:24:342 hrs 14 mins ago0x302eab8e588c39cee016d43154a04a34fd97346dOUTNear Protocol: wNEAR Token0 ETH0
0x8e128a655ee0c79ecbb91116ce3b85ee7390d066f3c87e3e8bf076ba16db87beSwap Exact Token...750944222022-09-28 13:24:282 hrs 14 mins ago0x302eab8e588c39cee016d43154a04a34fd97346dOUTTrisolaris: Router0 ETH0
0xc167af4eb80ba0a1e651f06b89dc3effc865ee2c2eb0e706a7df020b4920f4970x6b351848750939312022-09-28 13:13:382 hrs 25 mins ago0x302eab8e588c39cee016d43154a04a34fd97346dOUTNear Protocol: wNEAR Token0 ETH0
0xeb2820be1be9c0a54a202f8729bcfc53a50bc0f494844cc89d0b2c31ee2ff1acSwap Exact Token...750939262022-09-28 13:13:322 hrs 25 mins ago0x302eab8e588c39cee016d43154a04a34fd97346dOUTTrisolaris: Router0 ETH0
0x2b63c0d57c87060dffe7db09d8a61c6d4fb48988905bface734759f6a769a42e0x6b351848750923622022-09-28 12:40:442 hrs 57 mins ago0x302eab8e588c39cee016d43154a04a34fd97346dOUTNear Protocol: wNEAR Token0 ETH0
0xb8cf57fbbe1a5311a523a971b2b0a9b67d76ab6e1b956c4dc28a9bd49f8ebfc9Swap Exact Token...750923572022-09-28 12:40:372 hrs 58 mins ago0x302eab8e588c39cee016d43154a04a34fd97346dOUTTrisolaris: Router0 ETH0
0x297172e98d47767e095d97b0140275de3e170002046a5c0c044c8722706733f30x6b351848750885062022-09-28 11:25:234 hrs 13 mins ago0x302eab8e588c39cee016d43154a04a34fd97346dOUTNear Protocol: wNEAR Token0 ETH0
0xfff17d2852c20f4ec99efbe55064f4b49895e12732a6511d71da17bff21ae438Swap Exact Token...750885012022-09-28 11:25:174 hrs 13 mins ago0x302eab8e588c39cee016d43154a04a34fd97346dOUTTrisolaris: Router0 ETH0
0xb00ba7cd77f93df2f00b9eb52256767e37a0ed4d27baae5e47ca7e3dde108fd10x6b351848750786832022-09-28 8:13:387 hrs 25 mins ago0x302eab8e588c39cee016d43154a04a34fd97346dOUTNear Protocol: wNEAR Token0 ETH0
0x1853948581a5c4d8cf7a64e3d891804faae094304ea303c2d90f71242ab949c4Swap Exact Token...750786782022-09-28 8:13:327 hrs 25 mins ago0x302eab8e588c39cee016d43154a04a34fd97346dOUTTrisolaris: Router0 ETH0
0x2ff9ef980df91018759e3b66cfc411e140582d1040d692940a8d15da31d9f3430x6b351848750633802022-09-28 3:13:4012 hrs 25 mins ago0x302eab8e588c39cee016d43154a04a34fd97346dOUTAurora: AURORA Token0 ETH0
0xa54587994ec1d6cdf058999d33042575a03832ca1c598c90ec8b180936475b02Swap Exact Token...750633742022-09-28 3:13:3312 hrs 25 mins ago0x302eab8e588c39cee016d43154a04a34fd97346dOUTTrisolaris: Router0 ETH0
0x8fa861aed7704382469e9da58c5150d220e59d1ebdd69362c6108dbc0ebeda2f0x6b351848750633202022-09-28 3:12:3112 hrs 26 mins ago0x302eab8e588c39cee016d43154a04a34fd97346dOUTAurora: AURORA Token0 ETH0
0xc77d3ba8540440988bbfd6c73bcb05f3bc404367f163aec2e6b553174f69066eSwap Exact Token...750633152022-09-28 3:12:2512 hrs 26 mins ago0x302eab8e588c39cee016d43154a04a34fd97346dOUTTrisolaris: Router0 ETH0
0xc03c1e2321cc408075255846faa6ac99361b987b979ed6b90f72b66c201d956f0x6b351848750616412022-09-28 2:39:3812 hrs 59 mins ago0x302eab8e588c39cee016d43154a04a34fd97346dOUTNear Protocol: wNEAR Token0 ETH0
0xa579ed64b3a7d15d492e6c3accb3641b9201fb2193d676e261cb4c052f1225baSwap Exact ETH F...750616362022-09-28 2:39:3212 hrs 59 mins ago0x302eab8e588c39cee016d43154a04a34fd97346dOUTTrisolaris: Router0.342127 ETH0
0x8bf7141ef1cc38d8e75df5ae35cea616f15ec64809d92e6df0a0764a8f5191ba0x6b351848750510862022-09-27 23:15:4516 hrs 22 mins ago0x302eab8e588c39cee016d43154a04a34fd97346dOUTAurora: AURORA Token0 ETH0
0xf802cb7d8064ad4f504ee16e5bdfb7c31ba13c13c006df405ba4323bb0ba9a24Swap Exact Token...750510812022-09-27 23:15:3916 hrs 23 mins ago0x302eab8e588c39cee016d43154a04a34fd97346dOUTTrisolaris: Router0 ETH0
[ Download CSV Export 
Parent Txn Hash Block From To Value
Loading

Contract Name:
0

Compiler Version
0

Optimization Enabled:
0

Other Settings:
-NA-
Block Transaction Gas Used Reward
Age Block Fee Address BC Fee Address Voting Power Jailed Incoming
Block Uncle Number Difficulty Gas Used Reward
Loading
Make sure to use the "Vote Down" button for any spammy posts, and the "Vote Up" for interesting conversations.